Location: Norton
(51.3000°N, 0.8167°E)
Time: 01:38:15
(UTC+00:00)

Okean-O - Pass Details

Date: 03 March 2021
Orbit: 639 x 640 km, 98.2° (Epoch: 12 April)

Event Time Altitude Azimuth Distance (km) Brightness Sun altitude
Rises 18:22:55 0° 160° (SSE) 2,936 5.8 -7.3°
Reaches altitude 10° 18:25:06 10° 159° (SSE) 2,031 5.0 -7.7°
Maximum altitude 18:29:32 78° 74° (ENE) 661 2.6 -8.4°
Drops below altitude 10° 18:33:59 10° 348° (NNW) 2,046 5.4 -9.1°
Sets 18:36:12 0° 347° (NNW) 2,960 6.2 -9.4°
